FloripaSat 1
1 44885U 19093G   25187.79040240  .00004918  00000-0  41327-3 0  9992
2 44885  97.8166 275.4483 0012716 113.1476 247.1088 14.98705546300823
RS-44
1 44909U 19096E   25187.52614164  .00000030  00000-0  82204-4 0  9996
2 44909  82.5195 209.3752 0216485 232.3922 125.7354 12.79741584258139
UPMSat 2
1 46276U 20061E   25187.19414726  .00074910  00000-0  56896-3 0  9999
2 46276  97.2428 262.5336 0002168 150.1066 210.0322 15.72095580269641
SALSAT
1 46495U 20068K   25187.62113421  .00006072  00000-0  26058-3 0  9996
2 46495  97.8609 166.9060 0012994  72.3773 287.8881 15.23044643262645
CubeSX-Sirius-HSE
1 47951U 21022V   25157.62701764  .07883385  25648-5  89537-3 0  9993
2 47951  97.4004  72.1904 0010275 223.9924 136.0557 16.36879307233400
CubeSX-HSE
1 47952U 21022W   25157.69972699  .06655353  25454-5  93288-3 0  9992
2 47952  97.3980  72.5414 0010307 219.3637 140.6911 16.34906352233436
GRBAlpha
1 47959U 21022AD  25160.45426279  .07940347  25506-5  90589-3 0  9995
2 47959  97.3899  75.6235 0011032 227.2558 132.7812 16.36806138232695
TUBIN
1 48900U 21059X   25187.89340706  .00036406  00000-0  40841-3 0  9997
2 48900  97.6754 359.3860 0004242 131.6556 228.5065 15.62571828224308
LEDSAT
1 49069U 21073D   25187.78201298  .00068580  00000-0  72000-3 0  9990
2 49069  97.3882 270.5229 0006904 331.5034  28.5847 15.64115320215686
CUTE
1 49263U 21088D   25187.19508635  .00013890  00000-0  26884-3 0  9995
2 49263  97.4504 264.2370 0009358 139.7157 220.4788 15.47808309208542
TeikyoSat 4
1 49396U 21102B   25187.62949299  .00001505  00000-0  10228-3 0  9997
2 49396  97.4089 225.0805 0013652  46.6535 313.5828 15.07736206200625
Z-Sat
1 49399U 21102E   25187.90558277  .00003131  00000-0  17246-3 0  9997
2 49399  97.3787 228.6125 0018214  15.2099 344.9677 15.14601443201119
KOSEN 1
1 49402U 21102H   25187.65375364  .00005420  00000-0  24977-3 0  9990
2 49402  97.3694 231.9895 0015110 350.7106   9.3848 15.20589888201409
HO-113
1 50466U 21131B   25187.84429779  .00000337  00000-0  11885-3 0  9991
2 50466  98.5107 277.0644 0005186  64.5851 295.5874 14.40840183185379
Foresail-1
1 52766U 22057AL  25176.64799660  .13857605  27391-5  25307-3 0  9992
2 52766  97.5832 331.2310 0012137 233.7199 258.4922 16.46795272172486
SNUGLITE 2
1 52899U 22065F   25187.36431880  .00000824  00000-0  16899-3 0  9994
2 52899  98.1718 329.0820 0008276  38.1398 322.0389 14.63263318160403
UmKA 1 (RS40S)
1 57172U 23091G   25187.87616178  .00003827  00000-0  20476-3 0  9996
2 57172  97.5569 243.1177 0013016 235.8465 124.1533 15.15595556111610
CubeBel-2 (EU11S)
1 57175U 23091K   25187.83312407  .00007063  00000-0  33325-3 0  9996
2 57175  97.5569 244.3898 0010709 242.5283 117.4863 15.19729910111691
VERONIKA
1 58261U 23174F   25187.72554847  .00214451  00000-0  11988-2 0  9990
2 58261  97.4093 275.6915 0005310 253.5138 106.5545 15.78754564 92950
ENSO
1 58470U 23185J   25187.88387674  .00045718  00000-0  59790-3 0  9995
2 58470  97.3726 263.9289 0004724 342.4511  17.6581 15.58493486 89284
EIRSAT-1
1 58472U 23185L   25187.85625450  .00111290  00000-0  80262-3 0  9998
2 58472  97.3660 266.3326 0002631 302.5783  57.5227 15.73205520 89440
SONATE-2
1 59112U 24043Q   25187.33255582  .00013615  00000-0  38385-3 0  9993
2 59112  97.5161 319.0651 0010993  26.0287 334.1507 15.36482975 74443
MO-122
1 60209U 24125G   25187.53597883  .00015542  00000-0  42996-3 0  9992
2 60209  97.2773  38.8634 0019364  45.4009 314.8811 15.36902774 56091
GRBBeta
1 60237U 24128C   25187.61836755  .00003204  00000-0  24634-3 0  9990
2 60237  61.9924 345.2686 0053867  63.4517 297.2082 15.02829988 54269
Curium One
1 60242U 24128H   25187.60909284  .00005710  00000-0  39768-3 0  9991
2 60242  61.9822 343.1884 0053778  59.7047 300.9350 15.05446974 54304
ROBUSTA-3A
1 60243U 24128J   25187.81954764  .00005462  00000-0  38634-3 0  9993
2 60243  61.9894 343.3712 0052750  57.4398 303.1773 15.04974126 54329
CatSat
1 60246U 24125J   25187.56110088  .00007970  00000-0  26302-3 0  9993
2 60246  97.2572  37.7917 0041838   0.5699 359.5582 15.30820073 54116
HYPERVIEW-1G (RS66S)
1 61772U 24199AP  25187.77787222  .00018026  00000-0  50762-3 0  9993
2 61772  97.3507  56.5917 0015329  95.9554 264.3438 15.36392335 81139
AO-123
1 61781U 24199AY  25187.87903388  .00004929  00000-0  17879-3 0  9996
2 61781  97.3522  55.2794 0017527 100.3916 259.9301 15.28654834 81056
ZIMSAT 2
1 61783U 24199BA  25187.86212010  .00031131  00000-0  72002-3 0  9996
2 61783  97.3482  57.5089 0014960  93.2802 267.0157 15.42311811 84353
HADES-R (SO-124)
1 62690U 25009CK  25187.16418588  .00031961  00000-0  10770-2 0  9990
2 62690  97.4094 267.8937 0001943  33.0656 327.0706 15.30678174 26218
HYDRA-T
1 62692U 25009CM  25187.47170822  .00032875  00000-0  10969-2 0  9997
2 62692  97.4088 268.2449 0001502  29.8565 330.2761 15.30992458 26265
JINJUSat 1B
1 63210U 25052A   25187.63634273  .00009013  00000-0  40791-3 0  9990
2 63210  97.4393  81.4219 0003141 201.1888 158.9218 15.21122027 17365
NUSHSAT 1
1 63211U 25052B   25187.62676076  .00009884  00000-0  44336-3 0  9992
2 63211  97.4387  81.4204 0002971 206.8682 153.2400 15.21402642 17362
TEVEL2-4
1 63213U 25052D   25187.64581911  .00009973  00000-0  45146-3 0  9998
2 63213  97.4300  81.2737 0001679 226.1001 134.0096 15.21084754 17360
TEVEL2-5
1 63214U 25052E   25187.64677039  .00010006  00000-0  45327-3 0  9996
2 63214  97.4301  81.2729 0001674 225.7515 134.3583 15.21062236 17368
TEVEL2-6
1 63215U 25052F   25187.25489864  .00010252  00000-0  46495-3 0  9991
2 63215  97.4301  80.8811 0001683 231.9297 128.1787 15.21013796 17300
TEVEL2-1
1 63217U 25052H   25187.20402514  .00009478  00000-0  43296-3 0  9999
2 63217  97.4276  80.7604 0001623 263.1675  96.9376 15.20788968 17296
TEVEL2-2
1 63218U 25052J   25187.59909295  .00009471  00000-0  43251-3 0  9994
2 63218  97.4277  81.1505 0001664 261.9075  98.1972 15.20797855 17356
TEVEL2-3
1 63219U 25052K   25187.66511462  .00009504  00000-0  43410-3 0  9992
2 63219  97.4275  81.2144 0001685 262.5428  97.5616 15.20792666 17361
TEVEL2-8
1 63237U 25052AD  25187.68626276  .00008476  00000-0  40128-3 0  9994
2 63237  97.4342  81.1283 0006115 283.7035  76.3519 15.19572569 17353
TEVEL2-9
1 63238U 25052AE  25187.62386173  .00008551  00000-0  40558-3 0  9999
2 63238  97.4342  81.0613 0006148 283.9055  76.1496 15.19506124 17345
TEVEL2-7
1 63239U 25052AF  25187.62641736  .00008776  00000-0  41655-3 0  9997
2 63239  97.4340  81.0563 0006199 284.2403  75.8143 15.19473512 17344
HYDRA-W
1 63490U 25052BL  25187.20643002  .00022910  00000-0  93558-3 0  9993
2 63490  97.4290  81.0820 0009245 279.1257  80.8934 15.24361940 17316
HADES-ICM (SO-125)
1 63492U 25052BN  25187.22938254  .00020882  00000-0  86578-3 0  9993
2 63492  97.4301  81.0596 0009538 283.9614  76.0562 15.23868379 17317
